Satellite-Ground Cal/Val Site Overpasses Predictions

Prediction of Satellite NPP Overpassing Cal/Val Site: Antarctic Dome C

Ground Cal/Val Site Location: Latitude: -75.10, Longitude: 123.35; Satellite-Ground Site NADIR distance within 100 km.

Table of predicted overpasses for the next 14.0 days since TLE Epoch: 7/1/2022
Interval Starting Time Ending Time Minimum Distance Time Minimum Distance (km)
1 07/03/2022 07:31:34 07/03/2022 07:32:04 07/03/2022 07:31:49 1.85
2 07/06/2022 14:55:05 07/06/2022 14:55:33 07/06/2022 14:55:19 20.89
3 07/07/2022 14:36:24 07/07/2022 14:36:39 07/07/2022 14:36:31 85.96
4 07/08/2022 07:37:57 07/08/2022 07:38:25 07/08/2022 07:38:11 34.73
5 07/09/2022 07:19:12 07/09/2022 07:19:31 07/09/2022 07:19:22 75.23
6 07/11/2022 15:01:29 07/11/2022 15:01:53 07/11/2022 15:01:41 58.42
7 07/12/2022 14:42:40 07/12/2022 14:43:06 07/12/2022 14:42:53 50.59
8 07/13/2022 07:44:22 07/13/2022 07:44:42 07/13/2022 07:44:32 70.41
